DMSP 5D-2 F13 DEB

Satellite information

Favourite Embed

Satellite Type and Status

DEBRISIN ORBIT

Key statistics

Satellite DMSP 5D-2 F13 DEB at a glance.

Uptime

11001

Days in orbit

Revolutions

≈ 14.3

Per day

Orbit

SSO

Sun Synchronous Orbit

Inclination

98.7

Latest

Satellite identification and parameters

Extended collection of information and parameters for DMSP 5D-2 F13 DEB.

Object identification

Identified? True

Debris? True

Object name: DMSP 5D-2 F13 DEB

International designator: 1995-015FV

Object number (NORAD): 40681

Object ID (CCSDS): 40681

Country: UNITED STATES OF AMERICA (US)

Current information (Y/N): Y

RCS size: SMALL

Orbital parameters

Period: 100.445 minutes

Inclination: 98.7266 deg

SMA: 7157.772 km

Apoapsis: 784.124 km

Periapsis: 775.149 km

RAAN: 150.2496 deg

Eccentricy: 0.000627

Argument of periapsis: 169.6942 deg

Mean anomaly: 190.4372 deg

Mean motion: 14.33626467 rev/day

Mean motion (dot): 0.00007901 rev/day2

B* drag term: 0.002864 1/REarth

Two-line elements (TLE)

Creation date: May 3, 2025, 5:28 p.m.

Reference frame: TEME

Reference center: EARTH

Epoch: May 3, 2025, 8 a.m. UTC

TLE line 0: 0 DMSP 5D-2 F13 DEB

TLE line 1: 1 40681U 95015FV 25123.33379237 .00007901 00000-0 28640-2 0 9998

TLE line 2: 2 40681 98.7266 150.2496 0006270 169.6942 190.4372 14.33626467521914

Live tracking on map

Real-time ground track for satellite DMSP 5D-2 F13 DEB.

In-orbit conjunctions

A list of the most updated potential collisions computed for object DMSP 5D-2 F13 DEB.

Target Orbit TCA Probability of collision Miss distance Type
COSMOS 2150 LEO 2025-02-18 13:01:23 0.0001230035 595.0 (m) PAYLOAD

Associated space launch

Military meteorological satellite

DMSP 5D-2 F13 DEB was lifted into orbit during the mission ‘Atlas E | DMSP-5D2 F13’, on board a Atlas E space rocket.

The launch took place on March 24, 1995, 2:05 p.m. from Space Launch Complex 3W.

For more information about the launch, click the button.

Launch to space Atlas E | DMSP-5D2 F13
Atlas E | DMSP-5D2 F13

Agency: N/A

Status: Launch Successful

Launch date: March 24, 1995, 2:05 p.m. UTC

Rocket: Atlas E

Launch pad: Space Launch Complex 3W

Location: Vandenberg SFB, CA, USA

...

Latest news about this satellite

There are no fresh news available about this satellite. Check back as we update our databases every day.


Newsletter sign-up

Weekly statistics, charts and insights to help you stay on top of the space industry.